Flag for Germany Weather past 2 weeks in Radolfzell am Bodensee, Baden-Württemberg, Germany

Now
86 °F

Passing clouds.


Feels Like: 84 °F
Forecast: 56 / 88 °F
Wind: 2 mph from Southeast

Location: Konstanz

Current Time: Jun 30, 2015 at 4:52:25 PM

Latest Report: Jun 30, 2015 at 4:00 PM


Visibility: 41 mi

Pressure: 30.03 "Hg

Humidity: 34%

Dew point: 54 °F

Location of Radolfzell am BodenseeLocation

Historic Weather in Radolfzell am Bodensee — Graph

°F

Radolfzell am Bodensee temperature yesterday

Maximum temperature yesterday: 83 °F (at 6:00 PM)
Minimum temperature yesterday: 59 °F (at 5:00 AM)
Average temperature yesterday: 70 °F

Past Weeks' High & Low Weather Summary

 TemperatureHumidityPressure
High85 °F (Jun 30, 3:00 PM)97% (Jun 16, 1:00 AM)30.23 "Hg (Jun 16, 1:00 AM)
Low49 °F (Jun 24, 5:00 AM)21% (Jun 26, 4:00 PM)29.72 "Hg (Jun 22, 10:00 PM)
Average63 °F69%30.09 "Hg
* Reported Jun 15 3:00 PM — Jun 30 3:00 PM, Radolfzell am Bodensee, Weather by CustomWeather, © 2015

Note: Actual official high and low records may vary slightly from our data, if they occured in-between our weather recording intervals... More about our weather records

Advertising

Radolfzell am Bodensee weather history for previous 24 hours

 ConditionsComfort  
Time TempWeatherWind HumidityBarometerVisibility
3:00 PM
Tue, Jun 30
85 °FPassing clouds.2 mph35%30.05 "Hg37 mi
2:00 PM83 °FPassing clouds.1 mph36%30.06 "Hg37 mi
1:00 PM82 °FPassing clouds.2 mph36%30.08 "Hg37 mi
12:00 PM79 °FPassing clouds.2 mph48%30.10 "Hg37 mi
11:00 AM75 °FSunny.1 mph54%30.11 "Hg43 mi
10:00 AM72 °FPassing clouds.2 mph59%30.13 "Hg43 mi
9:00 AM70 °FPassing clouds.1 mph67%30.13 "Hg47 mi
8:00 AM66 °FPassing clouds.1 mph82%30.14 "Hg47 mi
7:00 AM62 °FPassing clouds.1 mph91%30.15 "Hg43 mi
5:00 AM62 °FClear.1 mph92%30.14 "Hg8 mi
4:00 AM62 °FClear.1 mph91%30.14 "Hg19 mi
3:00 AM64 °FClear.1 mph89%30.15 "Hg19 mi
2:00 AM65 °FClear.2 mph88%30.15 "Hg22 mi
1:00 AM66 °FClear.1 mph83%30.16 "Hg22 mi
12:00 AM68 °FClear.2 mph82%30.15 "Hg25 mi
11:00 PM
Mon, Jun 29
69 °FPassing clouds.1 mph83%30.15 "Hg25 mi
10:00 PM72 °FPassing clouds.2 mph67%30.13 "Hg37 mi
9:00 PM74 °FOvercast.2 mph60%30.11 "Hg43 mi
8:00 PM77 °FOvercast.1 mph57%30.10 "Hg37 mi
7:00 PM82 °FOvercast.1 mph36%30.09 "Hg34 mi
6:00 PM83 °FOvercast.2 mph38%30.09 "Hg31 mi
5:00 PM80 °FOvercast.1 mph34%30.10 "Hg28 mi
4:00 PM82 °FOvercast.2 mph37%30.10 "Hg28 mi
Weather by CustomWeather, © 2015

See weather overviewHow to use our weather pages